Location: Góry Miechowskie
(50.3599°N, 20.1803°E)
Time: 21:37:38
(UTC+00:00)

Tiros 1 despin weight - Pass Details

Date: 20 September 2024
Orbit: 572 x 614 km, 48.2° (Epoch: 12 October)

Event Time Altitude Azimuth Distance (km) Brightness Sun altitude
Rises 04:35:09 0° 279° (W) 2,882 ? 1.1°
Reaches altitude 10° 04:37:33 10° 272° (W) 1,978 ? 1.5°
Maximum altitude 04:41:49 41° 203° (SSW) 895 ? 2.2°
Drops below altitude 10° 04:46:05 10° 133° (SE) 1,972 ? 2.8°
Sets 04:48:28 0° 126° (SE) 2,872 ? 3.2°
